Regional Weather Roundup
Issued by NWS Cleveland, OH

Home | Current Version | Previous Version | Graphics & Text | Print | Product List | Glossary On
Versions: 1 2 3 4 5 6 7 8 9 10 11 12 13 14 15 16 17 18 19 20 21 22 23 24 25 26 27 28 29 30 31 32 33 34 35 36 37 38 39 40 41 42 43 44 45 46 47 48 49 50
249
ASUS41 KCLE 110002
RWRCLE
OHIO REGIONAL WEATHER ROUNDUP
NATIONAL WEATHER SERVICE CLEVELAND, OH
700 PM EST WED FEB 10 2016

NOTE: "FAIR" INDICATES FEW OR NO CLOUDS BELOW 12,000 FEET WITH NO
SIGNIFICANT WEATHER AND/OR OBSTRUCTIONS TO VISIBILITY.

OHZ001>008-015>018-024>027-034-035-043-044-110100-
   NORTHWEST OHIO

CITY           SKY/WX    TMP DP  RH WIND       PRES   REMARKS
DEFIANCE       LGT SNOW  19  11  70 W10G21    30.00R WCI   7
FINDLAY        CLOUDY    18  12  77 W23G29    29.96R WCI   0
TOLEDO EXPRESS CLOUDY    20   9  62 W17       29.95R WCI   5
TOLEDO EXEC    CLOUDY    21   8  57 W17       29.95R WCI   7
LIMA           FLURRIES  15   8  73 W21G28    29.99R WCI  -2
$$

OHZ009>014-019>023-028>033-038-089-110100-
   NORTHEAST OHIO

CITY           SKY/WX    TMP DP  RH WIND       PRES   REMARKS
CLE-HOPKINS    FLURRIES  20  11  68 SW13      29.92R WCI   7
CLE-LAKEFRONT  SNOW      22  17  81 W21       29.89R VSB 1/2 WCI   6
CUY CO. ARPT   LGT SNOW  21  14  73 W16       29.88R WCI   7
LORAIN-ELYRIA  FLURRIES  18  13  80 W10       29.92R WCI   6
ASHTABULA      CLOUDY    18  10  71 NW5       29.87R WCI  11
AKRON-CANTON   MOCLDY    17  11  77 W8        29.88R WCI   7
WOOSTER        FLURRIES  17  11  77 W15       29.91R WCI   2
MANSFIELD      CLOUDY    16  10  77 SW12G23   29.91R WCI   3
YOUNGSTOWN     FLURRIES  17  13  84 W7        29.85R WCI   8
$$

OHZ042-051>053-060>062-070>072-077>081-110100-
  SOUTHWEST OHIO

CITY           SKY/WX    TMP DP  RH WIND       PRES   REMARKS
CINC-COVINGTON CLOUDY    17   5  59 W6G18     30.07R WCI   9
CINC-LUNKEN    CLOUDY    18   7  62 W6        30.11R WCI  10
HAMILTON       CLOUDY    17   7  64 W7        30.10R WCI   8
DAYTON         CLOUDY    14   6  70 W13       30.05R WCI   0
WRIGHT-PAT AFB CLOUDY    14   7  73 SW16      30.06R WCI  -2
DAYTON GENERAL CLOUDY    14   3  61 W9        30.05R WCI   2
WILMINGTON     CLOUDY    14   4  64 W15       30.04R WCI  -1
$$

OHZ036-037-039>041-045>050-054>059-063>069-073>076-082>088-110100-
  CENTRAL AND SOUTHEAST OHIO

CITY           SKY/WX    TMP DP  RH WIND       PRES   REMARKS
COLUMBUS       CLOUDY    16   6  65 W14       30.02R WCI   2
OSU AIRPORT    CLOUDY    16   6  65 W14G22    30.01R WCI   2
BOLTON FIELD   CLOUDY    16   7  67 W12       30.02R WCI   3
RICKENBACK AFB NOT AVBL
NEWARK         LGT SNOW  17  10  74 MISG      29.99R
MARION         CLOUDY    17   7  64 W17G25    29.97R WCI   1
LANCASTER      LGT SNOW  16   7  67 W14G22    30.03R WCI   2
ZANESVILLE     LGT SNOW  18  11  74 W16G22    29.98R WCI   3
NEW PHILLY     CLOUDY    20  11  68 W10       29.94R WCI   9
$$




USA.gov is the U.S. government's official web portal to all federal, state and local government web resources and services.